Location: Sobotiste
(48.7170°N, 17.4000°E)
Time: 22:37:07
(UTC+02:00)

ISS - Visible Passes

Search period start: 20 July 2018 00:00
Search period end: 30 July 2018 00:00
Orbit: 402 x 408 km, 51.6° (Epoch: 20 July)

Date Brightness Start Highest point End Pass type
(mag) Time Alt. Az. Time Alt. Az. Time Alt. Az.
20 Jul -3.0 00:40:09 10° W 00:43:23 52° N 00:46:37 10° ENE visible
20 Jul -3.3 02:16:53 10° WNW 02:20:09 59° NNE 02:23:26 10° E visible
20 Jul -3.5 03:53:28 10° WNW 03:56:36 42° SSW 03:59:44 10° SE visible
20 Jul -3.3 22:11:43 10° SW 22:14:46 37° SSE 22:17:51 10° ENE visible
20 Jul -3.4 23:47:56 10° W 23:51:11 62° NNW 23:54:28 10° ENE visible
21 Jul -3.0 01:24:44 10° WNW 01:27:58 51° N 01:31:12 10° E visible
21 Jul -3.9 03:01:17 10° WNW 03:04:33 66° SSW 03:07:50 10° ESE visible
21 Jul -2.7 21:20:07 10° SSW 21:22:48 23° SE 21:25:30 10° E visible
21 Jul -3.8 22:55:44 10° WSW 22:59:01 82° NNW 23:02:19 10° ENE visible
22 Jul -2.8 00:32:32 10° WNW 00:35:44 48° N 00:38:57 10° ENE visible
22 Jul -3.9 02:09:08 10° WNW 02:12:26 85° NNE 02:15:45 10° ESE visible
22 Jul -2.6 03:46:00 10° W 03:48:38 22° SW 03:51:16 10° SSE visible
22 Jul -3.9 22:03:38 10° WSW 22:06:53 70° SSE 22:10:10 10° ENE visible
22 Jul -2.9 23:40:17 10° W 23:43:30 50° N 23:46:43 10° ENE visible
23 Jul -3.5 01:16:59 10° WNW 01:20:16 64° NNE 01:20:49 52° ENE visible
23 Jul -3.5 21:11:39 10° SW 21:14:48 44° SSE 21:17:57 10° ENE visible
23 Jul -3.2 22:48:01 10° W 22:51:16 58° NNW 22:54:32 10° ENE visible
24 Jul -3.1 00:24:48 10° WNW 00:28:02 53° N 00:29:05 35° ENE visible
24 Jul -1.2 02:01:21 10° WNW 02:01:41 12° WNW 02:01:41 12° WNW visible
24 Jul -3.6 21:55:46 10° WSW 21:59:03 73° NNW 22:02:20 10° ENE visible
24 Jul -2.9 23:32:35 10° WNW 23:35:47 48° N 23:38:04 17° ENE visible
25 Jul -2.1 01:09:09 10° WNW 01:10:40 25° WNW 01:10:40 25° WNW visible
25 Jul -2.9 22:40:18 10° W 22:43:31 48° N 22:46:43 10° ENE visible
26 Jul -3.4 00:16:58 10° WNW 00:19:53 62° NNW 00:19:53 62° NNW visible
26 Jul -3.0 21:48:00 10° W 21:51:14 54° N 21:54:28 10° ENE visible
26 Jul -3.2 23:24:45 10° WNW 23:28:00 56° N 23:29:09 34° ENE visible
27 Jul -1.2 01:01:19 10° WNW 01:01:48 13° WNW 01:01:48 13° WNW visible
27 Jul -3.0 22:32:31 10° WNW 22:35:43 49° N 22:38:31 13° E visible
28 Jul -2.6 00:09:03 10° WNW 00:11:08 35° WNW 00:11:08 35° WNW visible
28 Jul -2.9 21:40:12 10° WNW 21:43:24 48° N 21:46:37 10° ENE visible
28 Jul -3.8 23:16:50 10° WNW 23:20:07 79° NNE 23:20:31 65° E visible
29 Jul -3.4 22:24:36 10° WNW 22:27:51 60° NNE 22:29:55 20° E visible
